Time,TemperatureF,DewpointF,PressureIn,WindDirection,WindDirectionDegrees,WindSpeedMPH,WindSpeedGustMPH,Humidity,HourlyPrecipIn,Conditions,Clouds,dailyrainin,SoftwareType,DateUTC
2013-04-23 00:03:00,39.0,32.0,30.53,East,86,3.0,6.0,76,0.00,,,0.00,,2013-04-23 04:03:00,
2013-04-23 00:12:00,39.0,32.0,30.53,East,86,3.0,6.0,76,0.00,,,0.00,,2013-04-23 04:12:00,
2013-04-23 00:23:00,38.0,31.0,30.53,East,101,4.0,8.0,76,0.00,,,0.00,,2013-04-23 04:23:00,
2013-04-23 00:33:00,38.0,31.0,30.53,East,91,3.0,10.0,77,0.00,,,0.00,,2013-04-23 04:33:00,
2013-04-23 00:43:00,38.0,31.0,30.53,East,91,3.0,10.0,77,0.00,,,0.00,,2013-04-23 04:43:00,
2013-04-23 00:53:00,38.0,32.0,30.53,East,91,4.0,15.0,78,0.00,,,0.00,,2013-04-23 04:53:00,
2013-04-23 01:02:00,37.0,31.0,30.51,ENE,62,7.0,13.0,79,0.00,,,0.00,,2013-04-23 05:02:00,
2013-04-23 01:12:00,37.0,31.0,30.51,ENE,62,7.0,13.0,79,0.00,,,0.00,,2013-04-23 05:12:00,
2013-04-23 01:22:00,37.0,31.0,30.52,ENE,65,5.0,9.0,78,0.00,,,0.00,,2013-04-23 05:22:00,
2013-04-23 01:32:00,36.0,30.0,30.51,North,351,2.0,9.0,79,0.00,,,0.00,,2013-04-23 05:32:00,
2013-04-23 01:42:00,36.0,30.0,30.51,North,351,2.0,9.0,79,0.00,,,0.00,,2013-04-23 05:42:00,
2013-04-23 01:52:00,36.0,30.0,30.51,East,82,5.0,9.0,79,0.00,,,0.00,,2013-04-23 05:52:00,
2013-04-23 02:02:00,36.0,30.0,30.50,ENE,58,5.0,10.0,80,0.00,,,0.00,,2013-04-23 06:02:00,
2013-04-23 02:12:00,36.0,30.0,30.50,ENE,58,5.0,10.0,80,0.00,,,0.00,,2013-04-23 06:12:00,
2013-04-23 02:21:00,36.0,30.0,30.50,NE,40,2.0,6.0,80,0.00,,,0.00,,2013-04-23 06:21:00,
2013-04-23 02:33:00,36.0,31.0,30.49,NNE,19,3.0,6.0,81,0.00,,,0.00,,2013-04-23 06:33:00,
2013-04-23 02:42:00,36.0,31.0,30.49,NNE,19,3.0,6.0,81,0.00,,,0.00,,2013-04-23 06:42:00,
2013-04-23 02:52:00,35.0,30.0,30.49,NNW,340,5.0,7.0,81,0.00,,,0.00,,2013-04-23 06:52:00,
2013-04-23 03:02:00,35.0,30.0,30.48,ENE,58,4.0,10.0,81,0.00,,,0.00,,2013-04-23 07:02:00,
2013-04-23 03:11:00,35.0,30.0,30.48,ENE,58,4.0,10.0,81,0.00,,,0.00,,2013-04-23 07:11:00,
2013-04-23 03:22:00,35.0,30.0,30.47,ENE,65,4.0,9.0,81,0.00,,,0.00,,2013-04-23 07:22:00,
2013-04-23 03:32:00,35.0,30.0,30.47,NNE,14,4.0,8.0,81,0.00,,,0.00,,2013-04-23 07:32:00,
2013-04-23 03:42:00,35.0,30.0,30.47,NNE,14,4.0,8.0,81,0.00,,,0.00,,2013-04-23 07:42:00,
2013-04-23 03:52:00,35.0,30.0,30.46,ENE,76,3.0,8.0,82,0.00,,,0.00,,2013-04-23 07:52:00,
2013-04-23 04:02:00,35.0,30.0,30.46,NE,36,4.0,7.0,82,0.00,,,0.00,,2013-04-23 08:02:00,
2013-04-23 04:11:00,35.0,30.0,30.46,NE,36,4.0,7.0,82,0.00,,,0.00,,2013-04-23 08:11:00,
2013-04-23 04:21:00,34.0,29.0,30.46,East,84,3.0,6.0,83,0.00,,,0.00,,2013-04-23 08:21:00,
2013-04-23 04:32:00,34.0,29.0,30.45,ENE,67,3.0,8.0,83,0.00,,,0.00,,2013-04-23 08:32:00,
2013-04-23 04:42:00,34.0,29.0,30.45,ENE,67,3.0,8.0,83,0.00,,,0.00,,2013-04-23 08:42:00,
2013-04-23 04:52:00,34.0,29.0,30.45,ENE,65,3.0,6.0,83,0.00,,,0.00,,2013-04-23 08:52:00,
2013-04-23 05:02:00,34.0,30.0,30.45,NNE,22,4.0,10.0,84,0.00,,,0.00,,2013-04-23 09:02:00,
2013-04-23 05:11:00,34.0,30.0,30.45,NNE,22,4.0,10.0,84,0.00,,,0.00,,2013-04-23 09:11:00,
2013-04-23 05:21:00,34.0,30.0,30.44,ESE,120,5.0,13.0,84,0.00,,,0.00,,2013-04-23 09:21:00,
2013-04-23 05:33:00,34.0,30.0,30.44,East,82,4.0,8.0,84,0.00,,,0.00,,2013-04-23 09:33:00,
2013-04-23 05:43:00,34.0,30.0,30.44,East,82,4.0,8.0,84,0.00,,,0.00,,2013-04-23 09:43:00,
2013-04-23 05:52:00,35.0,31.0,30.44,NNE,18,6.0,12.0,84,0.00,,,0.00,,2013-04-23 09:52:00,
2013-04-23 06:03:00,35.0,30.0,30.44,North,11,7.0,10.0,83,0.00,,,0.00,,2013-04-23 10:03:00,
2013-04-23 06:13:00,35.0,30.0,30.44,North,11,7.0,10.0,83,0.00,,,0.00,,2013-04-23 10:13:00,
2013-04-23 06:23:00,35.0,30.0,30.44,ENE,65,6.0,10.0,83,0.00,,,0.00,,2013-04-23 10:23:00,
2013-04-23 06:33:00,35.0,30.0,30.43,NNE,28,5.0,10.0,83,0.00,,,0.00,,2013-04-23 10:33:00,
2013-04-23 06:42:00,35.0,30.0,30.43,NNE,28,5.0,10.0,83,0.00,,,0.00,,2013-04-23 10:42:00,
2013-04-23 06:52:00,35.0,30.0,30.43,ENE,61,5.0,15.0,83,0.00,,,0.00,,2013-04-23 10:52:00,
2013-04-23 07:03:00,36.0,31.0,30.43,NE,34,6.0,11.0,83,0.00,,,0.00,,2013-04-23 11:03:00,
2013-04-23 07:12:00,36.0,31.0,30.43,NE,34,6.0,11.0,83,0.00,,,0.00,,2013-04-23 11:12:00,
2013-04-23 07:21:00,36.0,31.0,30.43,ENE,63,5.0,9.0,83,0.00,,,0.00,,2013-04-23 11:21:00,
2013-04-23 07:32:00,36.0,31.0,30.43,NE,44,7.0,13.0,83,0.00,,,0.00,,2013-04-23 11:32:00,
2013-04-23 07:42:00,36.0,31.0,30.43,NE,44,7.0,13.0,83,0.00,,,0.00,,2013-04-23 11:42:00,
2013-04-23 07:52:00,36.0,31.0,30.43,NNE,32,8.0,13.0,83,0.00,,,0.00,,2013-04-23 11:52:00,
2013-04-23 08:02:00,36.0,32.0,30.43,North,11,7.0,10.0,84,0.00,,,0.00,,2013-04-23 12:02:00,
2013-04-23 08:12:00,36.0,32.0,30.43,North,11,7.0,10.0,84,0.00,,,0.00,,2013-04-23 12:12:00,
2013-04-23 08:22:00,36.0,32.0,30.42,East,79,5.0,14.0,85,0.00,,,0.00,,2013-04-23 12:22:00,
2013-04-23 08:32:00,36.0,32.0,30.42,ENE,73,6.0,15.0,85,0.00,,,0.00,,2013-04-23 12:32:00,
2013-04-23 08:42:00,36.0,32.0,30.42,ENE,73,6.0,15.0,85,0.00,,,0.00,,2013-04-23 12:42:00,
2013-04-23 08:52:00,36.0,32.0,30.41,NNE,29,6.0,13.0,86,0.00,,,0.00,,2013-04-23 12:52:00,
2013-04-23 09:01:00,36.0,32.0,30.41,NE,41,5.0,11.0,86,0.00,,,0.00,,2013-04-23 13:01:00,
2013-04-23 09:11:00,36.0,32.0,30.41,NE,41,5.0,11.0,86,0.00,,,0.00,,2013-04-23 13:11:00,
2013-04-23 09:22:00,36.0,32.0,30.41,NNE,27,4.0,12.0,86,0.00,,,0.00,,2013-04-23 13:22:00,
2013-04-23 09:32:00,36.0,33.0,30.40,NNE,18,6.0,12.0,87,0.00,,,0.00,,2013-04-23 13:32:00,
2013-04-23 09:42:00,36.0,33.0,30.40,NNE,18,6.0,12.0,87,0.00,,,0.00,,2013-04-23 13:42:00,
2013-04-23 09:52:00,36.0,33.0,30.40,NE,41,8.0,14.0,88,0.00,,,0.00,,2013-04-23 13:52:00,
2013-04-23 10:02:00,37.0,34.0,30.40,East,80,8.0,20.0,88,0.00,,,0.00,,2013-04-23 14:02:00,
2013-04-23 10:11:00,37.0,34.0,30.40,East,80,8.0,20.0,88,0.00,,,0.00,,2013-04-23 14:11:00,
2013-04-23 10:22:00,37.0,34.0,30.40,NNE,20,7.0,13.0,88,0.00,,,0.00,,2013-04-23 14:22:00,
2013-04-23 10:32:00,37.0,35.0,30.40,East,98,5.0,11.0,91,0.00,,,0.00,,2013-04-23 14:32:00,
2013-04-23 10:42:00,37.0,35.0,30.40,East,98,5.0,11.0,91,0.00,,,0.00,,2013-04-23 14:42:00,
2013-04-23 10:52:00,37.0,35.0,30.40,NNE,12,5.0,9.0,92,0.00,,,0.00,,2013-04-23 14:52:00,
2013-04-23 11:01:00,37.0,35.0,30.40,NNE,12,5.0,9.0,92,0.00,,,0.00,,2013-04-23 15:01:00,
2013-04-23 11:12:00,37.0,35.0,30.39,NE,46,3.0,12.0,92,0.00,,,0.00,,2013-04-23 15:12:00,
2013-04-23 11:22:00,37.0,35.0,30.39,NE,39,6.0,13.0,91,0.00,,,0.00,,2013-04-23 15:22:00,
2013-04-23 11:32:00,37.0,35.0,30.38,NNE,16,6.0,11.0,91,0.00,,,0.00,,2013-04-23 15:32:00,
2013-04-23 11:42:00,37.0,35.0,30.38,NNE,16,6.0,11.0,91,0.00,,,0.00,,2013-04-23 15:42:00,
2013-04-23 11:53:00,38.0,35.0,30.37,NE,35,5.0,10.0,90,0.00,,,0.00,,2013-04-23 15:53:00,
2013-04-23 12:03:00,38.0,35.0,30.37,NNW,335,9.0,16.0,88,0.00,,,0.00,,2013-04-23 16:03:00,
2013-04-23 12:12:00,38.0,35.0,30.37,NNW,335,9.0,16.0,88,0.00,,,0.00,,2013-04-23 16:12:00,
2013-04-23 12:23:00,39.0,35.0,30.36,North,360,7.0,12.0,87,0.00,,,0.00,,2013-04-23 16:23:00,
2013-04-23 12:34:00,39.0,36.0,30.35,NE,47,9.0,15.0,88,0.00,,,0.00,,2013-04-23 16:34:00,
2013-04-23 12:43:00,39.0,36.0,30.35,NE,47,9.0,15.0,88,0.00,,,0.00,,2013-04-23 16:43:00,
2013-04-23 12:53:00,40.0,36.0,30.35,NNE,29,8.0,15.0,87,0.00,,,0.00,,2013-04-23 16:53:00,
2013-04-23 13:02:00,40.0,36.0,30.34,North,353,7.0,11.0,86,0.00,,,0.00,,2013-04-23 17:02:00,
2013-04-23 13:12:00,40.0,36.0,30.34,North,353,7.0,11.0,86,0.00,,,0.00,,2013-04-23 17:12:00,
2013-04-23 13:22:00,40.0,36.0,30.33,ENE,65,6.0,10.0,85,0.00,,,0.00,,2013-04-23 17:22:00,
2013-04-23 13:33:00,40.0,36.0,30.32,NE,56,7.0,13.0,85,0.00,,,0.00,,2013-04-23 17:33:00,
2013-04-23 13:42:00,40.0,36.0,30.32,NE,56,7.0,13.0,85,0.00,,,0.00,,2013-04-23 17:42:00,
2013-04-23 13:53:00,41.0,37.0,30.32,NE,44,6.0,12.0,85,0.00,,,0.00,,2013-04-23 17:53:00,
2013-04-23 14:02:00,41.0,37.0,30.31,NE,38,7.0,14.0,85,0.00,,,0.00,,2013-04-23 18:02:00,
2013-04-23 14:12:00,41.0,37.0,30.31,NE,38,7.0,14.0,85,0.00,,,0.00,,2013-04-23 18:12:00,
2013-04-23 14:22:00,41.0,37.0,30.31,ENE,66,9.0,15.0,85,0.00,,,0.00,,2013-04-23 18:22:00,
2013-04-23 14:32:00,42.0,38.0,30.30,NE,38,7.0,10.0,85,0.00,,,0.00,,2013-04-23 18:32:00,
2013-04-23 14:42:00,42.0,38.0,30.30,NE,38,7.0,10.0,85,0.00,,,0.00,,2013-04-23 18:42:00,
2013-04-23 14:52:00,42.0,38.0,30.29,NNE,12,8.0,18.0,85,0.00,,,0.00,,2013-04-23 18:52:00,
2013-04-23 15:02:00,42.0,38.0,30.29,NE,49,7.0,14.0,85,0.00,,,0.00,,2013-04-23 19:02:00,
2013-04-23 15:11:00,42.0,38.0,30.29,NE,49,7.0,14.0,85,0.00,,,0.00,,2013-04-23 19:11:00,
2013-04-23 15:22:00,42.0,38.0,30.28,NE,52,6.0,14.0,85,0.00,,,0.00,,2013-04-23 19:22:00,
2013-04-23 15:32:00,42.0,38.0,30.28,NE,41,6.0,11.0,84,0.00,,,0.00,,2013-04-23 19:32:00,
2013-04-23 15:42:00,42.0,38.0,30.28,NE,41,6.0,11.0,84,0.00,,,0.00,,2013-04-23 19:42:00,
2013-04-23 15:52:00,42.0,38.0,30.27,NNE,20,6.0,13.0,85,0.00,,,0.00,,2013-04-23 19:52:00,
2013-04-23 16:02:00,43.0,38.0,30.27,ENE,70,5.0,9.0,84,0.00,,,0.00,,2013-04-23 20:02:00,
2013-04-23 16:11:00,43.0,38.0,30.27,ENE,70,5.0,9.0,84,0.00,,,0.00,,2013-04-23 20:11:00,
2013-04-23 16:22:00,43.0,38.0,30.26,NW,311,7.0,12.0,84,0.00,,,0.00,,2013-04-23 20:22:00,
2013-04-23 16:32:00,43.0,38.0,30.26,NE,50,6.0,13.0,84,0.00,,,0.00,,2013-04-23 20:32:00,
2013-04-23 16:42:00,43.0,38.0,30.26,NE,50,6.0,13.0,84,0.00,,,0.00,,2013-04-23 20:42:00,
2013-04-23 16:52:00,43.0,38.0,30.26,NNE,26,5.0,11.0,83,0.00,,,0.00,,2013-04-23 20:52:00,
2013-04-23 17:02:00,43.0,38.0,30.26,North,349,5.0,13.0,84,0.00,,,0.00,,2013-04-23 21:02:00,
2013-04-23 17:12:00,43.0,38.0,30.26,North,349,5.0,13.0,84,0.00,,,0.00,,2013-04-23 21:12:00,
2013-04-23 17:22:00,43.0,38.0,30.25,ENE,58,6.0,10.0,84,0.00,,,0.00,,2013-04-23 21:22:00,
2013-04-23 17:33:00,43.0,38.0,30.25,North,9,4.0,12.0,84,0.00,,,0.00,,2013-04-23 21:33:00,
2013-04-23 17:43:00,43.0,38.0,30.25,North,9,4.0,12.0,84,0.00,,,0.00,,2013-04-23 21:43:00,
2013-04-23 17:53:00,43.0,38.0,30.24,NNW,340,4.0,15.0,84,0.00,,,0.00,,2013-04-23 21:53:00,
2013-04-23 18:03:00,43.0,39.0,30.24,NNE,29,5.0,10.0,85,0.00,,,0.00,,2013-04-23 22:03:00,
2013-04-23 18:12:00,43.0,39.0,30.24,NNE,29,5.0,10.0,85,0.00,,,0.00,,2013-04-23 22:12:00,
2013-04-23 18:23:00,43.0,38.0,30.24,NE,45,6.0,16.0,84,0.00,,,0.00,,2013-04-23 22:23:00,
2013-04-23 18:33:00,42.0,38.0,30.24,NE,41,6.0,13.0,85,0.00,,,0.00,,2013-04-23 22:33:00,
2013-04-23 18:42:00,42.0,38.0,30.24,NE,41,6.0,13.0,85,0.00,,,0.00,,2013-04-23 22:42:00,
2013-04-23 18:52:00,42.0,38.0,30.23,NW,305,6.0,12.0,85,0.00,,,0.00,,2013-04-23 22:52:00,
2013-04-23 19:03:00,42.0,38.0,30.22,North,352,6.0,13.0,85,0.00,,,0.00,,2013-04-23 23:03:00,
2013-04-23 19:12:00,42.0,38.0,30.22,North,352,6.0,13.0,85,0.00,,,0.00,,2013-04-23 23:12:00,
2013-04-23 19:22:00,42.0,38.0,30.22,NE,43,6.0,12.0,86,0.00,,,0.00,,2013-04-23 23:22:00,
2013-04-23 19:32:00,42.0,38.0,30.21,NE,55,3.0,11.0,86,0.00,,,0.00,,2013-04-23 23:32:00,
2013-04-23 19:42:00,42.0,38.0,30.21,NE,55,3.0,11.0,86,0.00,,,0.00,,2013-04-23 23:42:00,
2013-04-23 19:52:00,42.0,38.0,30.20,ENE,77,6.0,12.0,87,0.00,,,0.00,,2013-04-23 23:52:00,
2013-04-23 20:02:00,42.0,38.0,30.20,NW,316,5.0,12.0,87,0.00,,,0.00,,2013-04-24 00:02:00,
2013-04-23 20:11:00,42.0,38.0,30.20,NW,316,5.0,12.0,87,0.00,,,0.00,,2013-04-24 00:11:00,
2013-04-23 20:22:00,41.0,37.0,30.19,ESE,103,3.0,8.0,87,0.00,,,0.00,,2013-04-24 00:22:00,
2013-04-23 20:32:00,41.0,38.0,30.20,NNW,333,5.0,10.0,88,0.00,,,0.00,,2013-04-24 00:32:00,
2013-04-23 20:42:00,41.0,38.0,30.20,NNW,333,5.0,10.0,88,0.00,,,0.00,,2013-04-24 00:42:00,
2013-04-23 20:52:00,41.0,38.0,30.20,NNE,22,4.0,11.0,89,0.00,,,0.00,,2013-04-24 00:52:00,
2013-04-23 21:02:00,41.0,38.0,30.20,NNE,26,5.0,9.0,89,0.00,,,0.00,,2013-04-24 01:02:00,
2013-04-23 21:11:00,41.0,38.0,30.20,NNE,26,5.0,9.0,89,0.00,,,0.00,,2013-04-24 01:11:00,
2013-04-23 21:21:00,41.0,38.0,30.20,NE,46,3.0,9.0,89,0.00,,,0.00,,2013-04-24 01:21:00,
2013-04-23 21:32:00,41.0,38.0,30.18,East,91,8.0,11.0,89,0.00,,,0.00,,2013-04-24 01:32:00,
2013-04-23 21:42:00,41.0,38.0,30.18,East,91,8.0,11.0,89,0.00,,,0.00,,2013-04-24 01:42:00,
2013-04-23 21:52:00,40.0,37.0,30.17,ENE,58,6.0,14.0,90,0.00,,,0.00,,2013-04-24 01:52:00,
2013-04-23 22:02:00,40.0,37.0,30.17,ENE,64,5.0,14.0,90,0.00,,,0.00,,2013-04-24 02:02:00,
2013-04-23 22:19:00,40.0,37.0,30.17,ENE,64,5.0,14.0,90,0.00,,,0.00,,2013-04-24 02:19:00,
2013-04-23 22:30:00,40.0,38.0,30.16,NNE,12,6.0,12.0,91,0.00,,,0.00,,2013-04-24 02:30:00,
2013-04-23 22:56:00,41.0,39.0,30.14,NNE,32,6.0,13.0,91,0.00,,,0.00,,2013-04-24 02:56:00,
2013-04-23 23:12:00,40.0,38.0,30.14,NNE,27,8.0,12.0,91,0.00,,,0.00,,2013-04-24 03:12:00,
2013-04-23 23:18:00,40.0,38.0,30.14,NNE,27,8.0,12.0,91,0.00,,,0.00,,2013-04-24 03:18:00,
2013-04-23 23:31:00,40.0,38.0,30.13,NW,307,3.0,15.0,91,0.00,,,0.00,,2013-04-24 03:31:00,
2013-04-23 23:42:00,40.0,38.0,30.12,ENE,60,6.0,15.0,91,0.00,,,0.00,,2013-04-24 03:42:00,
2013-04-23 23:51:00,40.0,38.0,30.12,ENE,60,6.0,15.0,91,0.00,,,0.00,,2013-04-24 03:51:00,
2013-04-23 23:57:00,40.0,38.0,30.11,NNE,13,5.0,11.0,92,0.00,,,0.00,,2013-04-24 03:57:00,